Home > Weather > Winterthur > Past weeks

Flag for Switzerland Past Weather in Winterthur, Switzerland — Yesterday and Last 2 Weeks

Now
75 °F

Passing clouds.


Feels Like: 77 °F
Forecast: 61 / 76 °F
Wind: 5 mph from North

Location: Zurich-Kloten

Current Time: Jul 24, 2016 at 12:55:10 PM

Latest Report: Jul 24, 2016 at 12:20 PM


Visibility: N/A

Pressure: 30.12 "Hg

Humidity: 65%

Dew Point: 63 °F

Location of WinterthurLocation

Past Weather in Winterthur — Graph

°F

Winterthur Temperature Yesterday

Maximum temperature yesterday: 79 °F (at 6:20 PM)
Minimum temperature yesterday: 61 °F (at 1:20 AM)
Average temperature yesterday: 69 °F

High & Low Weather Summary for the Past Weeks

 TemperatureHumidityPressure
High91 °F (Jul 20, 5:20 PM)100% (Jul 10, 6:50 AM)30.36 "Hg (Jul 10, 6:50 AM)
Low45 °F (Jul 16, 3:50 AM)31% (Jul 20, 3:20 PM)29.92 "Hg (Jul 10, 5:50 PM)
Average67 °F74%30.11 "Hg
* Reported Jul 9 11:20 AM — Jul 24 11:20 AM, Winterthur, Weather by CustomWeather, © 2016

Note: Actual official high and low records may vary slightly from our data, if they occured in-between our weather recording intervals... More about our weather records

Advertising

Winterthur Weather History for the Previous 24 Hours

Scroll right to see more
 ConditionsComfort  
Time TempWeatherWind HumidityBarometerVisibility
11:20 AM
Sun, Jul 24
75 °FPassing clouds.2 mph61%30.12 "HgN/A
10:50 AM72 °FPassing clouds.6 mph69%30.12 "HgN/A
10:20 AM72 °FPassing clouds.3 mph69%30.12 "HgN/A
9:50 AM72 °FScattered clouds.3 mph73%30.12 "HgN/A
9:20 AM68 °FScattered clouds.2 mph83%30.12 "HgN/A
8:50 AM68 °FScattered clouds.2 mph83%30.12 "HgN/A
8:20 AM68 °FScattered clouds.3 mph78%30.12 "HgN/A
7:50 AM66 °FScattered clouds.3 mph83%30.12 "HgN/A
7:20 AM66 °FPassing clouds.5 mph88%30.12 "HgN/A
6:50 AM64 °FPassing clouds.1 mph88%30.12 "HgN/A
6:20 AM63 °FPassing clouds.5 mph94%30.12 "HgN/A
5:50 AM64 °FPassing clouds.2 mph94%30.12 "HgN/A
5:20 AM64 °FPassing clouds.No wind88%30.12 "HgN/A
4:50 AM64 °FPassing clouds.1 mph88%30.12 "HgN/A
4:20 AM63 °FPassing clouds.1 mph94%30.12 "HgN/A
3:50 AM63 °FPassing clouds.2 mph94%30.12 "HgN/A
3:20 AM63 °FPassing clouds.2 mph94%30.12 "HgN/A
2:50 AM64 °FPassing clouds.2 mph88%30.15 "HgN/A
1:50 AM66 °FPartly cloudy.3 mph83%30.12 "HgN/A
1:20 AM66 °FPassing clouds.2 mph88%30.15 "HgN/A
12:50 AM68 °FPassing clouds.2 mph83%30.15 "HgN/A
12:20 AM68 °FPartly cloudy.6 mph83%30.12 "HgN/A
11:50 PM
Sat, Jul 23
68 °FPassing clouds.No wind83%30.12 "HgN/A
11:20 PM68 °FPartly cloudy.3 mph78%30.12 "HgN/A
10:50 PM70 °FPartly cloudy.5 mph73%30.12 "HgN/A
10:20 PM70 °FThundershowers. Passing clouds.2 mph78%30.12 "HgN/A
9:50 PM72 °FThundershowers. Partly sunny.1 mph69%30.12 "HgN/A
9:20 PM72 °FThundershowers. Scattered clouds.6 mph69%30.09 "HgN/A
8:50 PM73 °FScattered showers. Scattered clouds.6 mph65%30.09 "HgN/A
8:20 PM75 °FScattered showers. Scattered clouds.7 mph61%30.07 "HgN/A
7:50 PM75 °FScattered showers. Scattered clouds.7 mph61%30.07 "HgN/A
7:20 PM75 °FThunderstorms. Scattered clouds.7 mph57%30.07 "HgN/A
6:50 PM75 °FPartly sunny.12 mph61%30.07 "HgN/A
6:20 PM79 °FPartly sunny.7 mph58%30.07 "HgN/A
5:50 PM77 °FPartly sunny.6 mph54%30.07 "HgN/A
5:20 PM77 °FPartly sunny.5 mph54%30.07 "HgN/A
4:50 PM77 °FPartly sunny.6 mph61%30.07 "HgN/A
4:20 PM75 °FPartly sunny.5 mph57%30.07 "HgN/A
3:50 PM75 °FScattered showers. Partly sunny.2 mph57%30.07 "HgN/A
3:20 PM75 °FScattered showers. Broken clouds.7 mph61%30.07 "HgN/A
2:50 PM75 °FBroken clouds.5 mph61%30.09 "HgN/A
2:20 PM75 °FPartly sunny.6 mph65%30.09 "HgN/A
1:50 PM73 °FPartly sunny.7 mph65%30.09 "HgN/A
1:20 PM72 °FPartly sunny.7 mph69%30.09 "HgN/A
12:50 PM73 °FPartly sunny.5 mph69%30.09 "HgN/A
12:20 PM72 °FPartly sunny.5 mph73%30.09 "HgN/A
Weather by CustomWeather, © 2016

See weather overviewHow to use our weather pages